Content
SEND FEEDBACK

Daily
Averages
Monthly
Summary
United States of America

NEUSE, NORTH CAROLINA


Home > North America > United States > North Carolina
Elevation: 9 meters     Latitude: 35 54N     Longitude: 078 34W

WEATHER
 
SELECT A DAY
Number of Records: 191,002;   Date Range: 1/1/95 - 4/16/14
 
SHARE

PRINT THIS DATA

[ ← Previous Day ]
WEATHER ALMANAC - 21 JANUARY, 2013
[ Next Day → ]
[ °F ]   °C
Weather ElementAverageHighLow
Temperature7.2 °C15 °C (2:51 pm)-1.1 °C (7:51 am)
Dewpoint-3.3 °C0 °C (8:51 am)-10 °C (10:51 pm)
Humidity52.9 %92 % (7:51 am)27 % (9:51 pm)
Barometer1015.6 hPa1018.6 hPa (1:51 am)1011.9 hPa (4:51 pm)
Wind Speed8.9 km/h24.1 km/h (2:51 pm)
Wind Gust31.5 km/h (8:51 pm)
Weather ElementAverage
Visibility16.1 km
Wind DirectionSSE (153.9 °)

Weather ElementTotal
Precipitation---
Heating Degree Days11.4 (Base 18.3)
Averaged from 23 records on 21 January, 2013
WEATHER CONDITIONS BREAKOUT
WIND DIRECTION BREAKOUT
WEATHER BY HOUR - 21 JANUARY, 2013
[ °F ]   °C
Local TimeTemperatureDewpointHumidityBarometerVisibilityWind DirectionWind SpeedGust SpeedPrecipitationEventsConditions
1:51 AM1.7 °C-1.7 °C78 %1018.6 hPa16.1 kmCalmClear
2:51 AM1.1 °C-1.7 °C82 %1018.6 hPa16.1 kmCalmClear
3:51 AM-0.6 °C-2.2 °C89 %1018.3 hPa16.1 kmCalmClear
4:51 AM0 °C-2.2 °C85 %1017.9 hPa16.1 kmCalmClear
5:51 AM-0.6 °C-2.8 °C85 %1018.3 hPa16.1 kmCalmClear
6:51 AM-0.6 °C-2.2 °C89 %1018.3 hPa16.1 kmCalmClear
7:51 AM-1.1 °C-2.2 °C92 %1018.3 hPa16.1 kmCalmPartly Cloudy
8:51 AM2.8 °C0 °C82 %1018.6 hPa16.1 kmCalmPartly Cloudy
9:51 AM8.9 °C-2.2 °C46 %1018.3 hPa16.1 kmESE (120°)9.3 km/hClear
10:51 AM10 °C-3.9 °C38 %1017.9 hPa16.1 kmSE (140°)11.1 km/hPartly Cloudy
11:51 AM11.7 °C-3.3 °C35 %1016.9 hPa16.1 kmSSW (200°)5.6 km/hPartly Cloudy
12:51 PM13.3 °C-3.3 °C32 %1014.9 hPa16.1 kmWSW (250°)14.8 km/h25.9 km/hPartly Cloudy
1:51 PM14.4 °C-3.3 °C30 %1013.9 hPa16.1 kmSSW (210°)18.5 km/hPartly Cloudy
2:51 PM15 °C-1.7 °C32 %1012.9 hPa16.1 kmWSW (240°)24.1 km/hPartly Cloudy
3:51 PM14.4 °C-1.7 °C33 %1012.5 hPa16.1 kmWSW (240°)16.7 km/hPartly Cloudy
4:51 PM13.3 °C-0.6 °C39 %1011.9 hPa16.1 kmWSW (240°)14.8 km/hPartly Cloudy
5:51 PM11.1 °C-2.2 °C40 %1011.9 hPa16.1 kmWSW (250°)11.1 km/hPartly Cloudy
6:51 PM8.3 °C-2.2 °C48 %1012.2 hPa16.1 kmWSW (240°)9.3 km/hPartly Cloudy
7:51 PM10 °C-2.2 °C43 %1012.9 hPa16.1 kmWest (270°)11.1 km/hPartly Cloudy
8:51 PM9 °C-6 °C34 %1013.5 hPa16.1 kmWNW (290°)14.8 km/h31.5 km/hPartly Cloudy
9:51 PM8.9 °C-9.4 °C27 %1013.9 hPa16.1 kmWNW (290°)13 km/h29.6 km/hPartly Cloudy
10:51 PM7.8 °C-10 °C28 %1014.6 hPa16.1 kmWest (280°)13 km/hPartly Cloudy
11:51 PM6.7 °C-10 °C30 %1014.6 hPa16.1 kmWest (280°)14.8 km/hPartly Cloudy
Hourly data recorded from KRDU, located 20.39 kilometers away from Neuse, North Carolina







STORIES FROM OUR PARTNERS